period_start,C,m1,H,J0,J1,J2,J3,J4,J5,JA,JB,JC,JD,JJ,JK,JN,#
2015-02-09 00:03:40,0.17,5.66,0.00,19.44,24.60,27.85,4.87,27.92,1021.50,2038.02,1773.91,2095.58,2259.13,349.93,353.58,33.26,0000 0000 0000 0000 000000
2015-02-09 00:08:42,0.15,5.67,0.00,19.43,24.62,27.86,4.94,28.04,1021.50,2038.01,1773.03,2094.88,2258.40,350.33,353.96,33.29,0000 0000 0000 0000 000000
2015-02-09 00:13:43,0.16,5.67,0.00,19.38,24.63,27.84,4.91,28.09,1021.48,2038.01,1772.13,2094.08,2257.75,349.51,353.18,33.32,0000 0000 0000 0000 000000
2015-02-09 00:18:45,0.19,5.68,0.00,19.35,24.65,27.76,4.84,27.98,1021.30,2038.00,1771.22,2093.36,2256.90,349.31,353.03,33.35,0000 0000 0000 0000 000000
2015-02-09 00:23:46,0.16,5.68,0.00,19.45,24.66,27.86,4.96,28.13,1021.13,2038.00,1770.27,2092.75,2256.06,350.18,353.42,33.37,0000 0000 0000 0000 000000
2015-02-09 00:28:47,0.16,5.69,0.00,19.50,24.67,27.95,4.88,27.99,1021.04,2038.00,1769.40,2092.01,2255.27,349.91,353.37,33.40,0000 0000 0000 0000 000000
2015-02-09 00:33:49,0.18,5.69,0.00,19.51,24.69,28.00,4.87,27.99,1021.27,2038.00,1768.58,2091.17,2254.52,350.05,353.58,33.43,0000 0000 0000 0000 000000
2015-02-09 00:38:50,0.17,5.69,0.00,19.46,24.70,27.87,4.95,28.27,1021.38,2038.00,1767.62,2090.53,2253.79,349.88,353.27,33.46,0000 0000 0000 0000 000000
2015-02-09 00:43:52,0.13,5.70,0.00,19.50,24.72,27.81,4.91,28.10,1021.45,2038.00,1766.69,2089.85,2253.00,350.03,353.36,33.49,0000 0000 0000 0000 000000
2015-02-09 00:48:53,0.18,5.71,0.00,19.56,24.74,28.01,4.91,28.15,1021.50,2037.99,1765.76,2089.06,2252.21,349.68,353.26,33.52,0000 0000 0000 0000 000000
2015-02-09 00:53:54,0.18,5.71,0.00,19.58,24.75,28.05,4.88,28.07,1021.49,2037.99,1764.85,2088.27,2251.41,349.40,352.86,33.55,0000 0000 0000 0000 000000
2015-02-09 00:58:56,0.18,5.71,0.00,19.60,24.77,28.10,4.93,28.10,1021.46,2037.98,1763.90,2087.53,2250.64,350.57,353.86,33.58,0000 0000 0000 0000 000000
2015-02-09 01:03:57,0.11,5.72,0.00,19.57,24.78,27.96,4.95,28.05,1021.17,2037.96,1762.97,2086.94,2249.94,350.43,353.88,33.61,0000 0000 0000 0000 000000
2015-02-09 01:08:59,0.16,5.73,0.00,19.57,24.80,27.97,4.94,28.13,1021.02,2037.87,1762.05,2086.13,2249.10,350.82,353.98,33.64,0000 0000 0000 0000 000000
2015-02-09 01:14:00,0.21,5.73,0.00,19.61,24.82,28.10,4.87,28.02,1021.01,2037.81,1761.13,2085.37,2248.31,349.81,353.17,33.67,0000 0000 0000 0000 000000
2015-02-09 01:19:01,0.12,5.73,0.00,19.62,24.83,28.12,4.88,28.07,1021.01,2037.83,1760.27,2084.84,2247.73,349.83,353.21,33.70,0000 0000 0000 0000 000000
2015-02-09 01:24:03,0.11,5.74,0.00,19.61,24.85,28.17,4.84,28.18,1021.01,2037.59,1759.35,2084.04,2246.95,349.49,352.95,33.73,0000 0000 0000 0000 000000
2015-02-09 01:29:04,0.17,5.74,0.00,19.65,24.87,28.08,4.87,28.08,1021.01,2037.43,1758.32,2083.29,2246.08,350.26,353.45,33.76,0000 0000 0000 0000 000000
2015-02-09 01:34:05,0.13,5.75,0.00,19.63,24.88,28.07,4.90,28.03,1020.97,2037.18,1757.42,2082.64,2245.36,349.84,352.98,33.79,0000 0000 0000 0000 000000
2015-02-09 01:39:07,0.13,5.75,0.00,19.66,24.90,28.18,4.89,28.18,1020.73,2037.07,1756.51,2081.88,2244.60,349.94,353.05,33.81,0000 0000 0000 0000 000000
2015-02-09 01:44:08,0.16,5.75,0.00,19.68,24.91,28.16,4.93,28.14,1020.59,2037.04,1755.62,2081.06,2243.91,349.99,353.01,33.84,0000 0000 0000 0000 000000
2015-02-09 01:49:09,0.17,5.76,0.00,19.72,24.92,28.17,4.92,28.07,1020.55,2037.03,1754.72,2080.47,2243.08,349.96,352.91,33.87,0000 0000 0000 0000 000000
2015-02-09 01:54:11,0.16,5.76,0.00,19.71,24.94,28.23,4.83,28.11,1020.54,2037.01,1753.77,2079.75,2242.28,349.91,352.77,33.90,0000 0000 0000 0000 000000
2015-02-09 01:59:12,0.15,5.77,0.00,19.69,24.95,28.10,4.83,28.23,1020.52,2037.00,1752.85,2078.99,2241.54,348.86,351.77,33.93,0000 0000 0000 0000 000000
2015-02-09 02:04:14,0.17,5.77,0.00,19.73,24.97,28.18,4.84,28.12,1020.52,2037.00,1751.94,2078.21,2240.85,349.88,352.81,33.96,0000 0000 0000 0000 000000
2015-02-09 02:09:15,0.18,5.78,0.00,19.78,24.97,28.19,4.92,28.18,1020.53,2037.00,1751.02,2077.57,2240.04,350.24,353.23,33.99,0000 0000 0000 0000 000000
2015-02-09 02:14:16,0.14,5.79,0.00,19.77,25.00,28.24,4.87,28.33,1020.52,2037.00,1750.11,2076.97,2239.31,349.96,352.78,34.02,0000 0000 0000 0000 000000
2015-02-09 02:19:17,0.18,5.79,0.00,19.79,25.01,28.28,4.84,28.19,1020.50,2037.00,1749.27,2076.13,2238.80,349.56,352.34,34.05,0000 0000 0000 0000 000000
2015-02-09 02:24:19,0.18,5.79,0.00,19.81,25.02,28.31,4.91,28.27,1020.40,2037.00,1748.39,2075.52,2238.04,350.60,353.33,34.08,0000 0000 0000 0000 000000
2015-02-09 02:29:20,0.15,5.80,0.00,19.83,25.04,28.25,4.94,28.23,1020.10,2036.99,1747.51,2074.84,2237.26,350.24,352.86,34.11,0000 0000 0000 0000 000000
2015-02-09 02:34:21,0.17,5.80,0.00,19.84,25.05,28.24,4.80,28.28,1020.05,2036.99,1746.66,2074.05,2236.51,349.25,351.88,34.14,0000 0000 0000 0000 000000
2015-02-09 02:39:23,0.19,5.81,0.00,19.87,25.07,28.29,4.88,28.49,1020.04,2036.95,1745.66,2073.29,2235.69,349.21,352.00,34.17,0000 0000 0000 0000 000000
2015-02-09 02:44:24,0.18,5.81,0.00,19.88,25.08,28.37,4.85,28.41,1020.04,2036.93,1744.49,2072.59,2235.00,349.56,352.13,34.20,0000 0000 0000 0000 000000
2015-02-09 02:49:26,0.16,5.82,0.00,19.85,25.10,28.38,4.80,28.43,1020.04,2036.94,1743.37,2071.94,2234.25,349.62,352.18,34.22,0000 0000 0000 0000 000000
2015-02-09 02:54:27,0.19,5.83,0.00,19.85,25.11,28.37,4.99,28.53,1020.04,2036.98,1742.54,2071.11,2233.66,350.13,352.73,34.25,0000 0000 0000 0000 000000
2015-02-09 02:59:28,0.14,5.83,0.00,19.73,25.12,28.23,4.91,28.55,1020.03,2036.98,1741.79,2070.49,2232.95,349.82,352.64,34.28,0000 0000 0000 0000 000000
2015-02-09 03:04:30,0.10,5.83,0.00,19.76,25.15,28.15,4.85,28.52,1019.98,2036.94,1741.02,2069.92,2232.10,350.04,352.61,34.31,0000 0000 0000 0000 000000
2015-02-09 03:09:31,0.20,5.84,0.00,19.79,25.15,28.28,4.90,28.56,1019.91,2036.94,1740.24,2069.10,2231.46,350.18,352.81,34.34,0000 0000 0000 0000 000000
2015-02-09 03:14:33,0.12,5.84,0.00,19.72,25.17,28.21,4.89,28.52,1019.75,2036.90,1739.59,2068.62,2230.84,350.10,352.62,34.37,0000 0000 0000 0000 000000
2015-02-09 03:19:34,0.14,5.85,0.00,19.83,25.17,28.32,4.87,28.44,1019.61,2036.92,1738.73,2067.98,2230.06,349.62,352.17,34.40,0000 0000 0000 0000 000000
2015-02-09 03:24:35,0.15,5.85,0.00,19.80,25.18,28.30,4.93,28.48,1019.59,2036.86,1737.92,2067.16,2229.33,350.21,352.72,34.43,0000 0000 0000 0000 000000
2015-02-09 03:29:36,0.15,5.86,0.00,19.74,25.20,28.27,4.83,28.57,1019.63,2036.82,1737.06,2066.67,2228.76,350.04,352.44,34.46,0000 0000 0000 0000 000000
2015-02-09 03:34:37,0.08,5.86,0.00,19.84,25.20,28.18,4.90,28.68,1019.76,2036.58,1736.22,2065.99,2228.01,349.61,352.27,34.49,0000 0000 0000 0000 000000
2015-02-09 03:39:39,0.23,5.86,0.00,19.87,25.21,28.24,4.97,28.69,1019.82,2036.61,1735.40,2065.24,2227.25,349.96,352.38,34.52,0000 0000 0000 0000 000000
2015-02-09 03:44:40,0.08,5.87,0.00,19.82,25.22,28.23,4.91,28.55,1019.90,2036.57,1734.70,2064.80,2226.72,350.57,353.17,34.55,0000 0000 0000 0000 000000
2015-02-09 03:49:41,0.17,5.87,0.00,19.82,25.22,28.27,4.78,28.32,1019.71,2036.72,1733.94,2064.04,2226.02,349.54,352.25,34.58,0000 0000 0000 0000 000000
2015-02-09 03:54:43,0.26,5.88,0.00,19.86,25.23,28.37,4.88,28.56,1019.57,2036.79,1732.80,2063.32,2225.26,349.40,351.67,34.61,0000 0000 0000 0000 000000
2015-02-09 03:59:44,0.17,5.88,0.00,19.81,25.24,28.21,4.81,28.82,1019.55,2036.91,1731.77,2062.75,2224.61,349.64,351.93,34.64,0000 0000 0000 0000 000000
2015-02-09 04:04:45,0.11,5.89,0.00,19.74,25.25,28.17,4.82,28.76,1019.55,2036.91,1731.01,2062.03,2223.96,349.73,352.30,34.66,0000 0000 0000 0000 000000
2015-02-09 04:09:47,0.19,5.89,0.00,19.83,25.25,28.22,4.88,28.77,1019.55,2036.92,1730.23,2061.34,2223.19,349.91,352.31,34.69,0000 0000 0000 0000 000000
2015-02-09 04:14:48,0.17,5.90,0.00,19.80,25.26,28.27,4.89,28.93,1019.55,2036.93,1729.40,2060.78,2222.51,349.83,352.55,34.72,0000 0000 0000 0000 000000
2015-02-09 04:19:49,0.13,5.90,0.00,19.77,25.27,28.28,4.97,28.91,1019.54,2036.96,1728.57,2060.05,2221.93,350.41,352.75,34.75,0000 0000 0000 0000 000000
2015-02-09 04:24:51,0.15,5.91,0.00,19.82,25.27,28.19,4.80,28.71,1019.55,2036.96,1727.93,2059.46,2221.13,350.01,352.42,34.78,0000 0000 0000 0000 000000
2015-02-09 04:29:52,0.13,5.91,0.00,19.76,25.27,28.09,4.82,28.68,1019.55,2036.95,1727.10,2058.91,2220.44,349.94,352.60,34.81,0000 0000 0000 0000 000000
2015-02-09 04:34:53,0.15,5.92,0.00,19.73,25.27,28.26,4.88,28.87,1019.55,2036.96,1726.58,2058.09,2219.87,349.71,352.12,34.84,0000 0000 0000 0000 000000
2015-02-09 04:39:54,0.18,5.92,0.00,19.76,25.27,28.25,4.94,28.94,1019.54,2036.96,1725.64,2057.48,2219.06,350.49,353.04,34.87,0000 0000 0000 0000 000000
2015-02-09 04:44:56,0.09,5.93,0.00,19.77,25.27,28.24,4.91,28.92,1019.53,2036.96,1725.01,2056.99,2218.39,350.33,352.87,34.90,0000 0000 0000 0000 000000
2015-02-09 04:49:57,0.17,5.93,0.00,19.87,25.28,28.19,4.88,28.86,1019.54,2036.95,1724.23,2056.24,2217.85,349.79,352.27,34.93,0000 0000 0000 0000 000000
2015-02-09 04:54:58,0.12,5.93,0.00,19.79,25.28,28.25,4.94,29.01,1019.54,2036.97,1723.61,2055.82,2217.06,350.33,352.78,34.96,0000 0000 0000 0000 000000
2015-02-09 04:59:59,0.09,3.37,0.00,19.77,25.29,28.16,4.31,25.34,1019.55,2038.70,2475.74,2614.67,2829.89,312.59,314.90,0.01,0000 0000 0000 0000 000002
2015-02-09 05:05:01,0.04,0.00,0.00,19.76,25.30,28.15,4.88,27.57,1019.55,2040.96,3456.02,3345.37,3630.65,350.12,352.66,0.02,0000 0000 0000 0000 000000
2015-02-09 05:10:02,0.05,0.00,0.00,19.88,25.30,28.14,4.87,27.56,1019.55,2040.97,3453.53,3344.02,3628.77,349.51,352.03,0.05,0000 0000 0000 0000 000000
2015-02-09 05:15:03,0.08,0.01,0.00,19.79,25.30,28.15,4.89,27.63,1019.54,2040.97,3451.41,3342.73,3627.15,350.04,352.65,0.08,0000 0000 0000 0000 000000
2015-02-09 05:20:04,0.11,0.01,0.00,19.74,25.30,28.24,4.86,27.56,1019.49,2040.97,3449.36,3341.43,3625.52,349.85,352.50,0.10,0000 0000 0000 0000 000000
2015-02-09 05:25:05,0.12,0.01,0.00,19.77,25.30,28.32,4.88,27.48,1019.45,2040.98,3447.59,3340.28,3624.09,349.95,352.52,0.13,0000 0000 0000 0000 000000
2015-02-09 05:30:07,0.13,0.02,0.00,19.73,25.30,28.18,4.93,27.68,1019.48,2040.97,3445.76,3339.05,3622.64,350.00,352.83,0.16,0000 0000 0000 0000 000000
2015-02-09 05:35:08,0.13,0.02,0.00,19.75,25.30,28.19,4.88,27.45,1019.51,2040.97,3444.02,3337.82,3621.17,350.10,352.59,0.19,0000 0000 0000 0000 000000
2015-02-09 05:40:09,0.14,0.02,0.00,19.79,25.30,28.26,4.91,27.51,1019.53,2040.97,3442.15,3336.63,3619.67,350.10,352.63,0.22,0000 0000 0000 0000 000000
2015-02-09 05:45:10,0.11,0.03,0.00,19.76,25.30,28.27,4.94,27.54,1019.55,2040.98,3440.54,3335.53,3618.38,350.38,353.12,0.25,0000 0000 0000 0000 000000
2015-02-09 05:50:12,0.12,0.03,0.00,19.80,25.30,28.35,4.90,27.50,1019.55,2040.99,3438.85,3334.40,3616.98,349.81,352.55,0.28,0000 0000 0000 0000 000000
2015-02-09 05:55:13,0.11,0.04,0.00,19.87,25.30,28.21,4.93,27.52,1019.55,2040.98,3437.23,3333.24,3615.62,350.06,352.54,0.31,0000 0000 0000 0000 000000
2015-02-09 06:00:14,0.12,0.04,0.00,19.88,25.30,28.35,4.83,27.60,1019.55,2040.98,3435.52,3332.04,3614.32,349.41,351.81,0.34,0000 0000 0000 0000 000000
2015-02-09 06:05:16,0.11,0.04,0.00,19.90,25.30,28.41,4.83,27.60,1019.55,2040.99,3433.86,3330.92,3613.07,349.79,352.14,0.37,0000 0000 0000 0000 000000
2015-02-09 06:10:17,0.13,0.05,0.00,19.87,25.30,28.32,4.90,27.48,1019.55,2040.97,3432.22,3329.74,3611.71,349.99,352.35,0.40,0000 0000 0000 0000 000000
2015-02-09 06:15:18,0.12,0.05,0.00,19.87,25.30,28.39,4.82,27.32,1019.53,2040.98,3430.48,3328.59,3610.40,349.84,352.25,0.43,0000 0000 0000 0000 000000
2015-02-09 06:20:20,0.11,0.05,0.00,19.96,25.30,28.44,4.90,27.54,1019.50,2040.98,3428.86,3327.54,3609.13,349.96,352.23,0.46,0000 0000 0000 0000 000000
2015-02-09 06:25:21,0.11,0.06,0.00,19.98,25.32,28.36,4.89,27.70,1019.29,2040.98,3427.28,3326.49,3607.89,349.93,351.98,0.49,0000 0000 0000 0000 000000
2015-02-09 06:30:22,0.12,0.06,0.00,19.96,25.32,28.24,4.89,27.50,1019.11,2040.97,3425.64,3325.44,3606.63,350.14,352.54,0.51,0000 0000 0000 0000 000000
2015-02-09 06:35:24,0.11,0.07,0.00,19.96,25.32,28.35,4.87,27.62,1019.08,2040.98,3424.07,3324.27,3605.39,349.68,351.87,0.54,0000 0000 0000 0000 000000
2015-02-09 06:40:25,0.11,0.07,0.00,19.98,25.32,28.38,4.89,27.60,1019.06,2040.98,3422.41,3323.18,3604.13,349.69,351.90,0.57,0000 0000 0000 0000 000000
2015-02-09 06:45:26,0.12,0.07,0.00,20.03,25.33,28.43,4.87,27.47,1019.06,2040.97,3420.76,3321.99,3602.81,350.14,352.08,0.60,0000 0000 0000 0000 000000
2015-02-09 06:50:28,0.12,0.08,0.00,20.01,25.35,28.46,4.86,27.52,1019.13,2040.96,3419.24,3320.87,3601.52,350.29,352.47,0.63,0000 0000 0000 0000 000000
2015-02-09 06:55:29,0.12,0.08,0.00,20.03,25.35,28.42,4.88,27.48,1019.23,2040.95,3417.63,3319.80,3600.32,350.16,352.27,0.66,0000 0000 0000 0000 000000
2015-02-09 07:00:30,0.10,0.08,0.00,20.06,25.35,28.47,4.84,27.43,1019.37,2040.97,3416.17,3318.77,3599.15,349.78,351.91,0.69,0000 0000 0000 0000 000000
2015-02-09 07:05:31,0.11,0.09,0.00,20.03,25.37,28.41,4.87,27.45,1019.44,2040.95,3414.66,3317.69,3597.93,350.09,352.29,0.72,0000 0000 0000 0000 000000
2015-02-09 07:10:32,0.12,0.09,0.00,20.06,25.37,28.51,4.89,27.39,1019.44,2040.91,3413.11,3316.58,3596.68,350.07,352.18,0.75,0000 0000 0000 0000 000000
2015-02-09 07:15:33,0.11,0.09,0.00,20.08,25.38,28.49,4.89,27.62,1019.49,2040.89,3411.52,3315.44,3595.43,350.14,352.26,0.78,0000 0000 0000 0000 000000
2015-02-09 07:20:34,0.07,0.10,0.00,20.03,25.40,28.47,4.91,27.44,1019.28,2040.77,3409.96,3314.36,3594.27,349.81,351.94,0.81,0000 0000 0000 0000 000000
2015-02-09 07:25:36,0.14,0.10,0.00,20.07,25.40,28.50,4.89,27.40,1019.14,2040.78,3408.47,3313.33,3593.11,349.70,351.76,0.84,0000 0000 0000 0000 000000
2015-02-09 07:30:37,0.11,0.10,0.00,20.04,25.40,28.37,4.89,27.52,1019.23,2040.81,3406.92,3312.27,3591.97,349.75,351.80,0.87,0000 0000 0000 0000 000000
2015-02-09 07:35:38,0.08,0.10,0.00,20.08,25.42,28.44,4.88,27.53,1019.45,2040.63,3405.36,3311.18,3590.68,350.04,351.97,0.90,0000 0000 0000 0000 000000
2015-02-09 07:40:39,0.06,0.11,0.00,20.12,25.42,28.57,4.83,27.49,1019.55,2040.33,3403.71,3309.97,3589.49,350.09,351.99,0.92,0000 0000 0000 0000 000000
2015-02-09 07:45:41,0.10,0.11,0.00,20.15,25.43,28.56,4.85,27.54,1019.59,2040.28,3402.37,3308.94,3588.31,350.03,352.18,0.95,0000 0000 0000 0000 000000
2015-02-09 07:50:42,0.10,0.11,0.00,20.16,25.45,28.62,4.84,27.53,1019.79,2040.21,3400.80,3307.88,3587.09,350.18,352.16,0.98,0000 0000 0000 0000 000000
2015-02-09 07:55:43,0.10,0.12,0.00,20.14,25.45,28.62,4.88,27.48,1019.95,2040.10,3399.34,3306.79,3585.83,350.39,352.65,1.01,0000 0000 0000 0000 000000
2015-02-09 08:00:45,0.11,0.12,0.00,20.20,25.47,28.64,4.87,27.52,1019.99,2040.04,3397.80,3305.71,3584.68,349.98,352.10,1.04,0000 0000 0000 0000 000000
2015-02-09 08:05:46,0.11,0.12,0.00,20.23,25.47,28.68,4.85,27.47,1020.03,2040.03,3396.27,3304.54,3583.49,350.00,352.08,1.07,0000 0000 0000 0000 000000
2015-02-09 08:10:47,0.11,0.12,0.00,20.29,25.49,28.69,4.92,27.60,1020.03,2040.05,3394.71,3303.54,3582.50,350.09,352.28,1.10,0000 0000 0000 0000 000000
2015-02-09 08:15:49,0.09,0.13,0.00,20.23,25.50,28.72,4.90,27.51,1020.03,2040.01,3393.24,3302.42,3581.26,349.73,351.78,1.13,0000 0000 0000 0000 000000
2015-02-09 08:20:50,0.11,0.13,0.00,20.31,25.51,28.69,4.89,27.51,1020.04,2040.01,3391.74,3301.35,3580.05,350.12,352.20,1.16,0000 0000 0000 0000 000000
2015-02-09 08:25:51,0.11,0.14,0.00,20.38,25.52,28.80,4.81,27.23,1020.14,2040.01,3390.51,3300.35,3578.82,349.94,351.99,1.19,0000 0000 0000 0000 000000
2015-02-09 08:30:53,0.11,0.14,0.00,20.39,25.54,28.77,4.92,27.45,1020.39,2040.00,3388.94,3299.19,3577.59,349.90,351.80,1.22,0000 0000 0000 0000 000000
2015-02-09 08:35:54,0.12,0.14,0.00,20.41,25.55,28.82,4.89,27.49,1020.32,2040.00,3387.32,3297.93,3576.30,349.80,351.80,1.25,0000 0000 0000 0000 000000
2015-02-09 08:40:55,0.12,0.15,0.00,20.34,25.57,28.80,4.83,27.46,1020.20,2040.00,3385.70,3296.79,3575.07,350.04,352.01,1.28,0000 0000 0000 0000 000000
2015-02-09 08:45:57,0.10,0.15,0.00,20.38,25.59,28.87,4.97,27.65,1020.19,2040.00,3384.28,3295.80,3573.83,350.64,352.70,1.31,0000 0000 0000 0000 000000
2015-02-09 08:50:58,0.13,0.15,0.00,20.38,25.60,28.85,4.88,27.30,1020.11,2040.00,3382.77,3294.63,3572.64,350.00,352.04,1.33,0000 0000 0000 0000 000000
2015-02-09 08:55:59,0.11,0.16,0.00,20.46,25.62,28.83,4.85,27.55,1020.09,2039.99,3381.33,3293.53,3571.45,349.95,351.84,1.36,0000 0000 0000 0000 000000
2015-02-09 09:01:00,0.12,0.16,0.00,20.39,25.64,28.87,4.84,27.57,1020.17,2039.99,3379.75,3292.37,3570.13,349.61,351.66,1.39,0000 0000 0000 0000 000000
2015-02-09 09:06:02,0.11,0.16,0.00,20.45,25.65,28.91,4.89,27.50,1020.46,2039.97,3378.18,3291.23,3568.83,349.92,352.13,1.42,0000 0000 0000 0000 000000
2015-02-09 09:11:03,0.11,0.17,0.00,20.52,25.67,28.97,4.87,27.38,1020.52,2039.96,3376.66,3290.11,3567.68,349.82,351.73,1.45,0000 0000 0000 0000 000000
2015-02-09 09:16:04,0.09,0.17,0.00,20.54,25.68,28.98,4.83,27.46,1020.52,2039.89,3375.28,3289.02,3566.47,349.35,351.30,1.48,0000 0000 0000 0000 000000
2015-02-09 09:21:06,0.08,0.17,0.00,20.53,25.70,28.91,4.85,27.41,1020.52,2039.77,3373.71,3287.92,3565.21,349.78,351.90,1.51,0000 0000 0000 0000 000000
2015-02-09 09:26:07,0.07,0.18,0.00,20.55,25.72,28.97,4.88,27.36,1020.52,2039.45,3372.20,3286.77,3563.95,350.45,352.27,1.54,0000 0000 0000 0000 000000
2015-02-09 09:31:09,0.09,0.18,0.00,20.49,25.73,28.95,4.82,27.51,1020.52,2039.11,3370.66,3285.67,3562.69,349.73,352.11,1.57,0000 0000 0000 0000 000000
2015-02-09 09:36:10,0.11,0.18,0.00,20.55,25.75,28.97,4.91,27.51,1020.47,2039.13,3369.26,3284.63,3561.60,350.15,352.05,1.60,0000 0000 0000 0000 000000
2015-02-09 09:41:11,0.11,0.18,0.00,20.51,25.77,28.95,4.86,27.66,1020.22,2039.02,3367.58,3283.47,3560.39,349.92,351.70,1.63,0000 0000 0000 0000 000000
2015-02-09 09:46:13,0.10,0.19,0.00,20.52,25.78,28.93,4.84,27.43,1020.19,2039.01,3366.16,3282.36,3559.08,350.40,352.25,1.66,0000 0000 0000 0000 000000
2015-02-09 09:51:14,0.11,0.19,0.00,20.53,25.80,28.97,4.85,27.47,1020.48,2039.00,3364.74,3281.30,3557.84,349.99,351.64,1.69,0000 0000 0000 0000 000000
2015-02-09 09:56:15,0.10,0.19,0.00,20.48,25.81,28.88,4.85,27.57,1020.52,2039.00,3363.32,3280.28,3556.68,350.04,351.87,1.72,0000 0000 0000 0000 000000
2015-02-09 10:01:16,0.11,0.20,0.00,20.55,25.82,28.99,4.92,27.42,1020.58,2039.00,3361.88,3279.23,3555.52,350.02,351.92,1.74,0000 0000 0000 0000 000000
2015-02-09 10:06:17,0.11,0.20,0.00,20.51,25.84,28.97,4.99,27.47,1020.87,2039.00,3360.49,3278.16,3554.30,350.12,352.11,1.77,0000 0000 0000 0000 000000
2015-02-09 10:11:18,0.11,0.20,0.00,20.60,25.85,28.98,4.83,27.31,1021.01,2038.99,3359.03,3277.12,3553.10,349.74,351.80,1.80,0000 0000 0000 0000 000000
2015-02-09 10:16:20,0.10,0.21,0.00,20.57,25.86,28.99,4.89,27.40,1021.12,2038.96,3357.56,3276.01,3551.93,350.04,352.16,1.83,0000 0000 0000 0000 000000
2015-02-09 10:21:21,0.12,0.21,0.00,20.68,25.87,29.06,4.88,27.34,1021.34,2038.96,3356.18,3275.01,3550.74,349.98,351.92,1.86,0000 0000 0000 0000 000000
2015-02-09 10:26:23,0.11,0.21,0.00,20.63,25.89,29.07,4.87,27.44,1021.41,2038.97,3354.73,3273.99,3549.62,349.39,351.58,1.89,0000 0000 0000 0000 000000
2015-02-09 10:31:24,0.07,0.22,0.00,20.66,25.90,29.14,4.83,27.43,1021.38,2038.78,3353.30,3272.89,3548.43,349.52,351.81,1.92,0000 0000 0000 0000 000000
2015-02-09 10:36:25,0.12,0.22,0.00,20.71,25.92,29.13,4.83,27.41,1021.41,2038.74,3351.84,3271.89,3547.33,349.72,351.78,1.95,0000 0000 0000 0000 000000
2015-02-09 10:41:26,0.04,0.22,0.00,20.68,25.92,29.15,4.85,27.35,1021.38,2038.28,3350.28,3270.70,3546.07,350.12,352.37,1.98,0000 0000 0000 0000 000000
2015-02-09 10:46:28,0.12,0.22,0.00,20.74,25.95,29.14,4.83,27.43,1021.46,2038.33,3348.89,3269.72,3544.93,349.39,351.47,2.01,0000 0000 0000 0000 000000
2015-02-09 10:51:29,0.08,0.23,0.00,20.76,25.96,29.16,4.87,27.43,1021.50,2038.08,3347.47,3268.65,3543.74,350.04,351.74,2.04,0000 0000 0000 0000 000000
2015-02-09 10:56:30,0.11,0.23,0.00,20.74,25.97,29.17,4.94,27.37,1021.50,2038.06,3345.92,3267.59,3542.58,349.86,351.90,2.07,0000 0000 0000 0000 000000
2015-02-09 11:01:31,0.11,0.23,0.00,20.73,25.99,29.15,4.83,27.41,1021.51,2038.05,3344.53,3266.56,3541.38,349.87,351.78,2.10,0000 0000 0000 0000 000000
2015-02-09 11:06:33,0.11,0.24,0.00,20.81,26.00,29.21,4.90,27.60,1021.52,2038.02,3342.96,3265.48,3540.20,349.78,351.65,2.13,0000 0000 0000 0000 000000
2015-02-09 11:11:34,0.11,0.24,0.00,20.77,26.02,29.25,4.87,27.49,1021.50,2038.00,3341.44,3264.27,3538.91,350.34,352.46,2.15,0000 0000 0000 0000 000000
2015-02-09 11:16:35,0.12,0.24,0.00,20.79,26.03,29.24,4.92,27.52,1021.49,2038.00,3339.85,3263.24,3537.69,350.24,352.23,2.18,0000 0000 0000 0000 000000
2015-02-09 11:21:37,0.10,0.25,0.00,20.82,26.05,29.23,4.85,27.60,1021.39,2038.00,3338.36,3262.30,3536.49,349.78,351.81,2.21,0000 0000 0000 0000 000000
2015-02-09 11:26:38,0.12,0.25,0.00,20.77,26.06,29.20,4.81,27.33,1021.14,2038.00,3336.74,3261.06,3535.19,349.61,351.40,2.24,0000 0000 0000 0000 000000
2015-02-09 11:31:39,0.13,0.25,0.00,20.83,26.07,29.23,4.85,27.45,1021.21,2038.00,3335.17,3259.88,3533.86,350.01,351.98,2.27,0000 0000 0000 0000 000000
2015-02-09 11:36:41,0.14,0.26,0.00,20.80,26.09,29.24,4.92,27.38,1021.40,2037.99,3333.62,3258.69,3532.53,350.21,352.17,2.30,0000 0000 0000 0000 000000
2015-02-09 11:41:42,0.13,0.26,0.00,20.81,26.10,29.23,4.90,27.55,1021.50,2037.97,3331.82,3257.37,3531.01,350.12,352.09,2.33,0000 0000 0000 0000 000000
2015-02-09 11:46:43,0.11,0.27,0.00,20.80,26.11,29.25,4.92,27.43,1021.49,2037.95,3330.24,3256.23,3529.69,350.58,352.41,2.36,0000 0000 0000 0000 000000
2015-02-09 11:51:44,0.12,0.27,0.00,20.78,26.12,29.26,4.91,27.44,1021.47,2037.95,3328.63,3255.02,3528.39,350.27,352.23,2.39,0000 0000 0000 0000 000000
2015-02-09 11:56:45,0.12,0.27,0.00,20.81,26.13,29.28,4.80,27.42,1021.16,2037.89,3326.94,3253.73,3526.97,349.62,351.52,2.42,0000 0000 0000 0000 000000
2015-02-09 12:01:47,0.09,0.28,0.00,20.84,26.15,29.24,4.92,27.42,1021.04,2037.75,3325.27,3252.49,3525.59,350.48,352.48,2.45,0000 0000 0000 0000 000000
2015-02-09 12:06:48,0.10,0.28,0.00,20.81,26.15,29.25,4.87,27.28,1021.03,2037.35,3323.46,3251.12,3524.11,349.90,351.68,2.48,0000 0000 0000 0000 000000
2015-02-09 12:11:50,0.13,0.28,0.00,20.84,26.17,29.26,4.83,27.37,1021.07,2037.14,3321.58,3249.72,3522.60,349.39,351.06,2.51,0000 0000 0000 0000 000000
2015-02-09 12:16:51,0.12,0.29,0.00,20.83,26.17,29.28,4.92,27.42,1021.14,2037.04,3319.74,3248.31,3520.97,350.32,352.05,2.54,0000 0000 0000 0000 000000
2015-02-09 12:21:52,0.14,0.29,0.00,20.86,26.19,29.28,5.00,27.54,1021.31,2037.02,3317.84,3246.89,3519.51,350.62,352.56,2.56,0000 0000 0000 0000 000000
2015-02-09 12:26:54,0.14,0.29,0.00,20.87,26.20,29.27,4.79,27.53,1021.50,2037.02,3315.93,3245.59,3518.22,349.42,351.36,2.59,0000 0000 0000 0000 000000
2015-02-09 12:31:55,0.14,0.30,0.00,20.88,26.21,29.26,4.86,27.49,1021.50,2037.02,3314.09,3244.23,3516.68,350.35,352.23,2.62,0000 0000 0000 0000 000000
2015-02-09 12:36:56,0.15,0.30,0.00,20.90,26.22,29.35,4.91,27.66,1021.60,2037.00,3312.31,3242.74,3515.06,350.03,351.88,2.65,0000 0000 0000 0000 000000
2015-02-09 12:41:58,0.14,0.31,0.00,20.86,26.22,29.37,4.80,27.34,1021.79,2036.99,3310.34,3241.37,3513.50,349.81,351.61,2.68,0000 0000 0000 0000 000000
2015-02-09 12:46:59,0.14,0.31,0.00,20.94,26.24,29.37,4.87,27.48,1021.74,2036.99,3308.55,3239.96,3511.93,349.89,351.95,2.71,0000 0000 0000 0000 000000
2015-02-09 12:52:00,0.15,0.32,0.00,20.98,26.25,29.36,4.81,27.28,1021.73,2036.99,3306.71,3238.62,3510.44,349.48,351.32,2.74,0000 0000 0000 0000 000000
2015-02-09 12:57:01,0.14,0.32,0.00,20.91,26.25,29.40,4.89,27.43,1021.65,2036.99,3304.86,3237.27,3508.86,349.99,351.82,2.77,0000 0000 0000 0000 000000
2015-02-09 13:02:03,0.16,0.32,0.00,20.99,26.27,29.36,4.87,27.44,1021.56,2036.99,3302.92,3235.80,3507.35,349.96,351.57,2.80,0000 0000 0000 0000 000000
2015-02-09 13:07:04,0.14,0.33,0.00,20.93,26.27,29.42,4.92,27.49,1021.52,2036.99,3301.05,3234.49,3505.80,349.93,351.92,2.83,0000 0000 0000 0000 000000